Tracking 33195 objects as of 8-Feb-2026
HD Live streaming from Space Station
objects crossing your sky now

FLOCK 4BE 2

Track FLOCK 4BE 2 now!
10-day predictions
FLOCK 4BE 2 is classified as:


NORAD ID: 60511
Int'l Code: 2024-149AV
Perigee: 449.8 km
Apogee: 454.6 km
Inclination: 97.4 °
Period: 93.5 minutes
Semi major axis: 6823 km
RCS: Unknown
Launch date: August 16, 2024
Source: United States (US)
Launch site: AIR FORCE WESTERN TEST RANGE (AFWTR)
Your satellite tracking list
Your tracking list is empty




NASA's NSSDC Master Catalog

Two Line Element Set (TLE):
1 60511U 24149AV  26039.22762785  .00044385  00000-0  10965-2 0  9999
2 60511  97.3896 124.0741 0003529  42.1149 318.0368 15.40355297 82578
Source of the keplerian elements: AFSPC